Location: Moscow
(55.7500°N, 37.5830°E)
Time: 18:47:54
(UTC+03:00)

COSMOS 2251 DEB - Visible Passes

Search period start: 03 July 2022 00:00
Search period end: 13 July 2022 00:00
Orbit: 738 x 847 km, 74.1° (Epoch: 02 July)

Date Brightness Start Highest point End Pass type
(mag) Time Alt. Az. Time Alt. Az. Time Alt. Az.
03 Jul ? 01:36:26 10° N 01:39:09 14° NNE 01:41:51 10° NE visible
03 Jul ? 23:22:16 10° NNW 23:23:52 11° N 23:25:28 10° N visible
04 Jul ? 01:06:51 10° N 01:09:04 12° NNE 01:11:16 10° NE visible
04 Jul ? 02:48:58 10° NNW 02:53:32 29° NE 02:57:59 10° ESE visible
04 Jul ? 22:51:40 10° NW 22:53:45 12° NNW 22:55:49 10° N visible
05 Jul ? 00:37:15 10° N 00:38:56 11° NNE 00:40:37 10° NNE visible
05 Jul ? 02:19:23 10° NNW 02:23:36 24° NE 02:27:44 10° E visible
05 Jul ? 22:21:04 10° NW 22:23:38 13° NNW 22:26:12 10° N visible
06 Jul ? 00:07:36 10° N 00:08:48 11° N 00:09:59 10° NNE visible
06 Jul ? 01:49:49 10° NNW 01:53:38 20° NE 01:57:24 10° E visible
06 Jul ? 23:37:48 10° N 23:38:39 10° N 23:39:28 10° NNE visible
07 Jul ? 01:20:14 10° NNW 01:23:37 17° NNE 01:26:58 10° ENE visible
07 Jul ? 23:07:39 10° NNW 23:08:29 10° N 23:09:19 10° N visible
08 Jul ? 00:50:40 10° N 00:53:34 15° NNE 00:56:27 10° ENE visible
08 Jul ? 02:32:47 10° NNW 02:37:41 40° NE 02:42:29 10° ESE visible
08 Jul ? 22:37:09 10° NNW 22:38:20 11° N 22:39:31 10° N visible
09 Jul ? 00:21:05 10° N 00:23:29 13° NNE 00:25:52 10° NE visible
09 Jul ? 02:03:11 10° NNW 02:07:50 32° NE 02:12:23 10° ESE visible
09 Jul ? 22:06:30 10° NNW 22:08:12 11° NNW 22:09:52 10° N visible
09 Jul ? 23:51:31 10° N 23:53:23 12° NNE 23:55:13 10° NE visible
10 Jul ? 01:33:35 10° NNW 01:37:56 26° NE 01:42:12 10° E visible
10 Jul ? 23:21:57 10° N 23:23:14 11° N 23:24:32 10° NNE visible
11 Jul ? 01:04:00 10° NNW 01:07:59 22° NE 01:11:54 10° E visible
11 Jul ? 02:46:17 10° NNW 02:51:28 77° ENE 02:56:32 10° SSE visible
11 Jul ? 22:52:19 10° N 22:53:05 10° N 22:53:51 10° NNE visible
12 Jul ? 00:34:25 10° NNW 00:37:59 18° NNE 00:41:31 10° ENE visible
12 Jul ? 02:16:37 10° NNW 02:21:44 58° ENE 02:26:44 10° SE visible
12 Jul ? 22:22:30 10° N 22:22:56 10° N 22:23:22 10° N visible
